Aérodrome :
LOGIN :

S'inscrire | Disclaimer

   EN    FR    IT 

 










Légende :    VFR   VFR Marginal   IFR   IFR Intensif   IFR Très Intensif
Visi : 
Plafond : 
>= 8 km
>= 3000ft
5 à 8 km
1000 à 3000 ft
1500m à 5 km
500 à 1000 ft
800 à 1500m
200 à 500 ft
< 800m
< 200 ft
Symboles :   Orages  Brouillard  Fortes neiges  Fortes précipitations  Vent > 20 kt
SIGMETs :   Divers  Orages  Givrage  Turbulence  Onde Orograph.  Cendres Volcan.







- Altitude de l'aérodrome : 726 ft
- Code IATA : DIJ
- Voir les cartes d'approche


LFSD - Dijon

DERNIER METAR :
  • 200130Z AUTO 24003KT 0300 0250 R35/0350N FG VV/// 00/M00 Q1025

METARs EXPIRÉS :
  • 200100Z AUTO VRB02KT 0250 R35/0325N FG VV/// 00/00 Q1025
  • 200030Z AUTO VRB02KT 0250 R35/0250N FZFG VV/// M01/M01 Q1026
  • 200000Z AUTO VRB02KT 0600 0550 R35/0650D FZFG VV/// M02/M02 Q1026
  • 192330Z AUTO VRB03KT 0600 0550 R35/0650N FZFG VV/// M01/M02 Q1026
  • 192300Z AUTO 14003KT 0650 0550 R35/0650U FZFG VV/// M01/M01 Q1025

Prévision TAF périmée.
Pas de NOTAMs connus pour ce terrain.



MET'MAP, la Météo Aéronautique d'un coup d'oeil ! - Copyright ORBIFLY Décembre 2007 - Disclaimer

ORBIFLY MET'MAP TEAM :

Programmation & Développement : Alexandra Zaïnal
Conception & Développement : Baudouin d'Aumeries
Co-Programmation & Développement : Marc-Olivier Méhu
Soutien technique & logistique : Manuel Goepfert

Contact : metmap@orbifly.com




SOURCES & CREDITS :

   NOAA